| time (UTC) | temp C | wind direction | speed KPH | gust KPH | rain 1hr cm | rain 24hr cm | rain mn cm | humidity % | barometer mb |
| 20260504060238 | 13 | 202 | 1.6 | 1.6 | 0.10 | 1.70 | 0.10 | 98 | 1014.0 |
| 20260504045738 | 13 | 158 | 3.2 | 3.2 | 0.00 | 1.60 | 0.00 | 98 | 1013.0 |
| 20260504045238 | 13 | 112 | 0.0 | 0.0 | 0.00 | 1.60 | 0.00 | 98 | 1014.0 |
| 20260504044736 | 13 | 202 | 1.6 | 1.6 | 0.00 | 1.60 | 0.00 | 98 | 1014.0 |
| 20260504043739 | 13 | 266 | 3.2 | 4.8 | 0.00 | 1.60 | 0.00 | 98 | 1013.0 |
| 20260504043239 | 13 | 160 | 1.6 | 1.6 | 0.00 | 1.60 | 0.00 | 98 | 1013.0 |
| 20260504042738 | 13 | 202 | 3.2 | 3.2 | 0.00 | 1.60 | 0.00 | 98 | 1013.0 |
| 20260504041739 | 13 | 270 | 0.0 | 1.6 | 0.00 | 1.60 | 0.00 | 98 | 1013.0 |
| 20260504040737 | 13 | 270 | 0.0 | 0.0 | 0.00 | 1.60 | 0.00 | 98 | 1014.0 |
| 20260504035736 | 14 | 210 | 1.6 | 1.6 | 0.00 | 1.60 | 0.00 | 98 | 1014.0 |
| 20260504034740 | 14 | 248 | 3.2 | 4.8 | 0.00 | 1.60 | 0.00 | 98 | 1015.0 |
| 20260504034237 | 13 | 232 | 6.4 | 4.8 | 0.00 | 1.60 | 0.00 | 98 | 1015.0 |
| 20260504033736 | 13 | 270 | 4.8 | 4.8 | 0.00 | 1.60 | 0.00 | 98 | 1014.0 |
| 20260504032740 | 13 | 193 | 1.6 | 3.2 | 0.00 | 1.60 | 0.00 | 98 | 1014.0 |
| 20260504032310 | 13 | 248 | 1.6 | 3.2 | 0.00 | 1.60 | 0.00 | 98 | 1014.0 |
| 20260504032239 | 13 | 248 | 1.6 | 3.2 | 0.00 | 1.60 | 0.00 | 98 | 1014.0 |
| 20260504031239 | 13 | 248 | 3.2 | 4.8 | 0.00 | 1.60 | 0.00 | 98 | 1014.0 |
| 20260504030737 | 13 | 248 | 3.2 | 3.2 | 0.00 | 1.60 | 0.00 | 98 | 1014.0 |
| 20260504024737 | 13 | 315 | 0.0 | 0.0 | 0.00 | 1.60 | 0.00 | 98 | 1013.0 |
| 20260504022739 | 13 | 315 | 0.0 | 1.6 | 0.00 | 1.60 | 0.00 | 98 | 1013.0 |
| 20260504022320 | 13 | 315 | 0.0 | 0.0 | 0.00 | 1.60 | 0.00 | 98 | 1013.0 |
| 20260504022240 | 13 | 315 | 0.0 | 0.0 | 0.00 | 1.60 | 0.00 | 98 | 1013.0 |
| 20260504021942 | 13 | 315 | 1.6 | 3.2 | 0.00 | 1.60 | 0.00 | 98 | 1013.0 |
| 20260504021737 | 13 | 315 | 1.6 | 3.2 | 0.00 | 1.60 | 0.00 | 98 | 1013.0 |
| 20260504021241 | 13 | 315 | 0.0 | 3.2 | 0.00 | 1.60 | 0.00 | 98 | 1013.0 |
| 20260504014736 | 13 | 315 | 1.6 | 3.2 | 0.00 | 1.60 | 0.00 | 98 | 1013.0 |
| 20260504013739 | 13 | 319 | 4.8 | 4.8 | 0.00 | 1.60 | 0.00 | 98 | 1012.0 |
| 20260504012737 | 13 | 338 | 3.2 | 3.2 | 0.00 | 1.60 | 0.00 | 98 | 1012.0 |
| 20260504011736 | 13 | 0 | 3.2 | 3.2 | 0.00 | 1.60 | 0.00 | 98 | 1012.0 |
| 20260504010736 | 13 | 338 | 3.2 | 4.8 | 0.00 | 1.60 | 0.00 | 98 | 1013.0 |
| 20260504010239 | 13 | 328 | 3.2 | 3.2 | 0.00 | 1.60 | 0.00 | 98 | 1013.0 |
| 20260504005737 | 13 | 292 | 3.2 | 3.2 | 0.00 | 1.60 | 0.00 | 98 | 1013.0 |
| 20260504004737 | 13 | 270 | 0.0 | 0.0 | 0.00 | 1.60 | 0.00 | 98 | 1012.0 |
| 20260504004239 | 13 | 90 | 0.0 | 0.0 | 0.00 | 1.60 | 0.00 | 98 | 1012.0 |
| 20260504003237 | 13 | 90 | 0.0 | 0.0 | 0.00 | 1.60 | 0.00 | 98 | 1012.0 |
| 20260504002240 | 13 | 45 | 0.0 | 0.0 | 0.00 | 1.60 | 0.00 | 98 | 1013.0 |
| 20260504000738 | 13 | 338 | 0.0 | 0.0 | 0.00 | 1.60 | 0.00 | 98 | 1013.0 |
| 20260503234738 | 13 | 22 | 0.0 | 0.0 | 0.00 | 1.60 | 0.00 | 98 | 1013.0 |
| 20260503234237 | 13 | 22 | 1.6 | 1.6 | 0.00 | 1.60 | 0.00 | 98 | 1013.0 |
| 20260503233740 | 13 | 22 | 0.0 | 0.0 | 0.00 | 1.70 | 0.00 | 98 | 1013.0 |
| 20260503232237 | 13 | 0 | 0.0 | 0.0 | 0.00 | 1.70 | 0.00 | 98 | 1013.0 |
| 20260503230738 | 13 | 10 | 0.0 | 1.6 | 0.00 | 1.70 | 0.00 | 98 | 1014.0 |
| 20260503225811 | 13 | 112 | 0.0 | 0.0 | 0.00 | 1.70 | 0.00 | 98 | 1014.0 |
| 20260503225739 | 13 | 112 | 0.0 | 0.0 | 0.00 | 1.70 | 0.00 | 98 | 1014.0 |
| 20260503224919 | 13 | 112 | 0.0 | 1.6 | 0.00 | 1.70 | 0.00 | 98 | 1014.0 |
| 20260503224741 | 13 | 112 | 0.0 | 1.6 | 0.00 | 1.70 | 0.00 | 98 | 1014.0 |
| 20260503223818 | 13 | 112 | 1.6 | 0.0 | 0.00 | 1.70 | 0.00 | 98 | 1014.0 |
| 20260503223736 | 13 | 112 | 1.6 | 0.0 | 0.00 | 1.70 | 0.00 | 98 | 1014.0 |
| 20260503223236 | 14 | 112 | 0.0 | 0.0 | 0.00 | 1.70 | 0.00 | 98 | 1014.0 |
| 20260503221812 | 14 | 112 | 0.0 | 1.6 | 0.00 | 1.70 | 0.00 | 98 | 1014.0 |
| 20260503221739 | 14 | 112 | 0.0 | 1.6 | 0.00 | 1.70 | 0.00 | 98 | 1014.0 |
| 20260503220810 | 14 | 112 | 1.6 | 1.6 | 0.00 | 1.70 | 0.00 | 98 | 1014.0 |
| 20260503220737 | 14 | 112 | 1.6 | 1.6 | 0.00 | 1.70 | 0.00 | 98 | 1014.0 |
| 20260503214740 | 13 | 0 | 0.0 | 0.0 | 0.00 | 1.70 | 1.70 | 98 | 1013.0 |
| 20260503214238 | 13 | 90 | 0.0 | 0.0 | 0.00 | 1.70 | 1.70 | 98 | 1013.0 |
| 20260503213739 | 13 | 90 | 1.6 | 3.2 | 0.00 | 1.70 | 1.70 | 98 | 1014.0 |
| 20260503213237 | 13 | 90 | 0.0 | 0.0 | 0.00 | 1.70 | 1.70 | 98 | 1014.0 |
| 20260503212736 | 13 | 90 | 0.0 | 0.0 | 0.00 | 1.70 | 1.70 | 98 | 1014.0 |
| 20260503212240 | 13 | 90 | 0.0 | 1.6 | 0.00 | 1.70 | 1.70 | 98 | 1014.0 |
| 20260503211736 | 13 | 90 | 1.6 | 3.2 | 0.00 | 1.70 | 1.70 | 98 | 1014.0 |
| 20260503211242 | 13 | 90 | 1.6 | 1.6 | 0.00 | 1.70 | 1.70 | 98 | 1014.0 |
| 20260503210739 | 13 | 76 | 3.2 | 3.2 | 0.00 | 1.70 | 1.70 | 98 | 1014.0 |
| 20260503210239 | 13 | 112 | 0.0 | 1.6 | 0.00 | 1.70 | 1.70 | 98 | 1014.0 |
| 20260503205740 | 14 | 90 | 3.2 | 4.8 | 0.00 | 1.70 | 1.70 | 98 | 1014.0 |
| 20260503204740 | 14 | 110 | 4.8 | 4.8 | 0.00 | 1.70 | 1.70 | 98 | 1014.0 |
| 20260503204237 | 14 | 73 | 4.8 | 4.8 | 0.00 | 1.70 | 1.70 | 98 | 1014.0 |
| 20260503203239 | 14 | 0 | 1.6 | 1.6 | 0.00 | 1.70 | 1.70 | 98 | 1014.0 |
| 20260503202737 | 14 | 1 | 4.8 | 6.4 | 0.00 | 1.70 | 1.70 | 98 | 1014.0 |
| 20260503202241 | 14 | 22 | 3.2 | 3.2 | 0.00 | 1.70 | 1.70 | 98 | 1014.0 |
| 20260503201737 | 14 | 338 | 4.8 | 6.4 | 0.00 | 1.70 | 1.70 | 98 | 1014.0 |
| 20260503201238 | 14 | 322 | 3.2 | 6.4 | 0.00 | 1.70 | 1.70 | 98 | 1014.0 |
| 20260503200237 | 13 | 332 | 6.4 | 8.0 | 0.00 | 1.70 | 1.70 | 98 | 1014.0 |
| 20260503195739 | 13 | 350 | 4.8 | 6.4 | 0.00 | 1.70 | 1.70 | 98 | 1014.0 |
| 20260503195237 | 13 | 13 | 3.2 | 4.8 | 0.00 | 1.70 | 1.70 | 98 | 1013.0 |
| 20260503194313 | 13 | 348 | 4.8 | 6.4 | 0.10 | 1.70 | 1.70 | 98 | 1013.0 |
| 20260503194239 | 13 | 348 | 4.8 | 6.4 | 0.10 | 1.70 | 1.70 | 98 | 1013.0 |
| 20260503192239 | 13 | 16 | 3.2 | 4.8 | 0.23 | 1.70 | 1.70 | 98 | 1013.0 |
| 20260503191739 | 13 | 45 | 3.2 | 3.2 | 0.23 | 1.70 | 1.70 | 98 | 1013.0 |
| 20260503191240 | 13 | 22 | 1.6 | 1.6 | 0.23 | 1.70 | 1.70 | 98 | 1013.0 |
| 20260503190737 | 13 | 45 | 1.6 | 3.2 | 0.23 | 1.70 | 1.70 | 98 | 1013.0 |
| 20260503185238 | 14 | 32 | 3.2 | 4.8 | 0.23 | 1.70 | 1.70 | 98 | 1013.0 |
| 20260503183834 | 14 | 68 | 3.2 | 4.8 | 0.23 | 1.60 | 1.60 | 98 | 1013.0 |
| 20260503183737 | 14 | 68 | 3.2 | 4.8 | 0.23 | 1.60 | 1.60 | 98 | 1013.0 |
| 20260503182237 | 14 | 105 | 3.2 | 4.8 | 0.10 | 1.45 | 1.45 | 98 | 1013.0 |
| 20260503181237 | 14 | 22 | 3.2 | 3.2 | 0.20 | 1.45 | 1.45 | 98 | 1013.0 |
| 20260503180930 | 14 | 102 | 4.8 | 4.8 | 0.41 | 1.45 | 1.45 | 98 | 1012.0 |
| 20260503180837 | 14 | 102 | 4.8 | 4.8 | 0.41 | 1.45 | 1.45 | 98 | 1012.0 |
| 20260503180737 | 14 | 102 | 4.8 | 4.8 | 0.41 | 1.45 | 1.45 | 98 | 1012.0 |
| 20260503180238 | 14 | 23 | 1.6 | 3.2 | 0.61 | 1.45 | 1.45 | 98 | 1012.0 |
| 20260503175839 | 14 | 338 | 4.8 | 4.8 | 0.74 | 1.45 | 1.45 | 98 | 1012.0 |
| 20260503175736 | 14 | 338 | 4.8 | 4.8 | 0.74 | 1.45 | 1.45 | 98 | 1012.0 |
| 20260503175310 | 15 | 6 | 6.4 | 8.0 | 0.94 | 1.45 | 1.45 | 98 | 1012.0 |
| 20260503175236 | 15 | 6 | 6.4 | 8.0 | 0.94 | 1.45 | 1.45 | 98 | 1012.0 |
| 20260503174738 | 14 | 22 | 3.2 | 6.4 | 1.04 | 1.45 | 1.45 | 98 | 1012.0 |
| 20260503174321 | 14 | 29 | 3.2 | 6.4 | 1.14 | 1.60 | 1.45 | 97 | 1012.0 |
| 20260503174239 | 14 | 29 | 3.2 | 6.4 | 1.14 | 1.60 | 1.45 | 97 | 1012.0 |
| 20260503173839 | 14 | 1 | 4.8 | 6.4 | 1.04 | 1.60 | 1.37 | 97 | 1012.0 |
| 20260503173737 | 14 | 1 | 4.8 | 6.4 | 1.04 | 1.60 | 1.37 | 97 | 1012.0 |
| 20260503173237 | 14 | 65 | 3.2 | 3.2 | 1.04 | 1.60 | 1.37 | 97 | 1012.0 |
| 20260503172736 | 14 | 43 | 3.2 | 4.8 | 1.17 | 1.70 | 1.37 | 95 | 1012.0 |
| 20260503172236 | 14 | 17 | 8.0 | 9.7 | 1.17 | 1.80 | 1.37 | 94 | 1013.0 |
| 20260503171738 | 14 | 354 | 4.8 | 6.4 | 1.04 | 1.70 | 1.24 | 93 | 1013.0 |
| 20260503171310 | 14 | 347 | 4.8 | 8.0 | 1.04 | 1.70 | 1.24 | 92 | 1013.0 |
| 20260503171238 | 14 | 347 | 4.8 | 8.0 | 1.04 | 1.70 | 1.24 | 92 | 1013.0 |
| 20260503170737 | 14 | 329 | 8.0 | 12.9 | 0.84 | 1.50 | 1.04 | 90 | 1013.0 |
| 20260503170237 | 14 | 274 | 16.1 | 17.7 | 0.76 | 1.37 | 0.84 | 88 | 1013.0 |
| 20260503150737 | 20 | 109 | 9.7 | 6.4 | 0.00 | 0.71 | 0.08 | 65 | 1012.0 |
| 20260503150237 | 20 | 78 | 8.0 | 8.0 | 0.00 | 0.71 | 0.08 | 65 | 1012.0 |
| 20260503140314 | 21 | 93 | 4.8 | 8.0 | 0.00 | 0.71 | 0.08 | 62 | 1012.0 |
| 20260503140236 | 21 | 93 | 4.8 | 8.0 | 0.00 | 0.71 | 0.08 | 62 | 1012.0 |
| 20260503131313 | 22 | 91 | 6.4 | 12.9 | 0.00 | 0.71 | 0.08 | 60 | 1013.0 |
| 20260503131238 | 22 | 91 | 6.4 | 12.9 | 0.00 | 0.71 | 0.08 | 60 | 1013.0 |
| 20260503130810 | 22 | 47 | 8.0 | 8.0 | 0.00 | 0.71 | 0.08 | 61 | 1013.0 |
| 20260503130737 | 22 | 47 | 8.0 | 8.0 | 0.00 | 0.71 | 0.08 | 61 | 1013.0 |
| 20260503130310 | 22 | 99 | 9.7 | 16.1 | 0.00 | 0.71 | 0.08 | 65 | 1013.0 |
| 20260503130237 | 22 | 99 | 9.7 | 16.1 | 0.00 | 0.71 | 0.08 | 65 | 1013.0 |
| 20260503110738 | 19 | 97 | 3.2 | 3.2 | 0.00 | 0.71 | 0.08 | 73 | 1016.0 |
| 20260503110237 | 19 | 31 | 1.6 | 4.8 | 0.00 | 0.71 | 0.08 | 72 | 1016.0 |
| 20260503100237 | 18 | 38 | 1.6 | 3.2 | 0.00 | 0.71 | 0.08 | 76 | 1016.0 |
| 20260503090238 | 18 | 171 | 1.6 | 4.8 | 0.00 | 0.71 | 0.08 | 92 | 1016.0 |
| 20260503081312 | 16 | 78 | 3.2 | 6.4 | 0.00 | 0.71 | 0.08 | 97 | 1015.0 |
| 20260503081236 | 16 | 78 | 3.2 | 6.4 | 0.00 | 0.71 | 0.08 | 97 | 1015.0 |
| 20260503080830 | 16 | 140 | 4.8 | 4.8 | 0.00 | 0.71 | 0.08 | 97 | 1016.0 |
| 20260503080738 | 16 | 140 | 4.8 | 4.8 | 0.00 | 0.71 | 0.08 | 97 | 1016.0 |
| 20260503080237 | 16 | 152 | 1.6 | 1.6 | 0.00 | 0.71 | 0.08 | 97 | 1016.0 |
| 20260503072736 | 15 | 99 | 4.8 | 4.8 | 0.00 | 0.71 | 0.08 | 98 | 1016.0 |
| 20260503072310 | 15 | 90 | 3.2 | 4.8 | 0.00 | 0.71 | 0.08 | 98 | 1016.0 |
| 20260503072236 | 15 | 90 | 3.2 | 4.8 | 0.00 | 0.71 | 0.08 | 98 | 1016.0 |
| 20260503071829 | 15 | 117 | 3.2 | 4.8 | 0.00 | 0.71 | 0.08 | 98 | 1016.0 |
| 20260503071739 | 15 | 117 | 3.2 | 4.8 | 0.00 | 0.71 | 0.08 | 98 | 1016.0 |
| 20260503071237 | 15 | 112 | 4.8 | 4.8 | 0.00 | 0.71 | 0.08 | 98 | 1016.0 |
| 20260503070737 | 15 | 149 | 4.8 | 6.4 | 0.00 | 0.71 | 0.08 | 98 | 1016.0 |
| 20260503070237 | 15 | 90 | 3.2 | 1.6 | 0.00 | 0.71 | 0.08 | 98 | 1016.0 |